STARLINK-5702 (55622 NORAD) Tracking and Keplerian Element Data

This shows tracking and keplerian element data for the satellite.

Feedback or suggestion? Click here.




ElementValue
Catalog55622
NameSTARLINK-5702
Epoch Orbit660
Epoch Day85.25001157
Epoch Year2023
RAAN103.8316
Inclination42.9983
Eccentricity0.0001221
Argument of Perigee266.9942
Mean Anonmoly110.8283
Mean Motion15.48931458
Decay Rate-0.00054543
L11 55622U 23020BF 23085.25001157 -.00054543 00000+0 -98641-3 0 9999
L22 55622 42.9983 103.8316 0001221 266.9942 110.8283 15.48931458 6606



Live tracking and technical data element details for STARLINK-5702 (NORAD 55622). STARLINK-5702 can be tracked NOW for your location showing map with azimuth and elevation plus other details from your city location.







IsCatalogInMostPopularTable: catalog: 55622, numindb: 4
Update: records affected: 1



GetName: 55622 STARLINK-5702

Hit Count: updated at: Tue, 28 Mar 2023 01:49:37 GMT